Location: San Francisco
(37.7750°N, 122.4180°W)
Time: 03:50:18
(UTC-07:00)

Daily predictions for brighter satellites

Satellite Brightness Start Highest point End
(mag) Time Altitude Azimuth Time Altitude Azimuth Time Altitude Azimuth
CZ-2C R/B 3.8 00:06:47 44° NE 00:06:47 44° NE 00:10:40 10° N
Cosmos 1867 3.9 00:00:38 10° NNW 00:05:09 60° NW 00:05:09 60° NW
Mayak 1.5 00:03:18 10° NE 00:03:28 11° NE 00:03:28 11° NE
H-2A R/B 4.4 00:05:37 13° WSW 00:06:49 14° W 00:09:40 10° WNW
Cosmos 2227 Rocket 3.0 00:12:58 10° N 00:17:54 42° NE 00:17:54 42° NE
Cosmos 2266 Rocket 4.3 00:22:06 54° ENE 00:22:06 54° ENE 00:27:19 10° NNE
Cosmos 2219 3.7 00:15:53 10° NNW 00:20:40 53° WNW 00:20:40 53° WNW
CZ-2C R/B 3.2 00:19:48 10° NNE 00:23:35 49° NNE 00:23:35 49° NNE
BREEZE-M DEB (TANK) 4.2 00:11:15 10° WNW 00:26:54 85° NNE 00:27:18 79° E
Cosmos 1655 Rocket 4.5 00:30:13 50° W 00:30:26 51° W 00:36:30 10° N
Cosmos 2369 4.4 00:37:11 48° NE 00:37:11 48° NE 00:41:18 10° NNE
ALOS 2 4.3 00:43:07 32° N 00:43:07 32° N 00:45:29 10° N
Cosmos 1980 Rocket 4.1 00:45:27 18° ENE 00:45:27 18° ENE 00:47:32 10° NE
Cosmos 1697 Rocket 3.5 01:12:39 46° NE 01:12:39 46° NE 01:16:36 10° NNE
Cosmos 2297 Rocket 2.9 01:07:39 10° NNW 01:11:50 51° NNW 01:11:50 51° NNW
ATLAS CENTAUR R/B 4.3 01:18:21 11° NW 01:18:21 11° NW 01:19:31 10° NNW
SL-16 R/B 4.3 01:26:08 16° E 01:26:08 16° E 01:28:15 10° ENE
Cosmos 2322 Rocket 4.1 01:35:01 19° E 01:35:01 19° E 01:37:51 10° NE
Mayak 1.0 01:38:17 10° N 01:40:07 21° NNW 01:40:07 21° NNW
USA 234 3.4 01:50:00 10° NE 01:55:43 60° E 01:55:43 60° E
Cosmos 1745 Rocket 4.0 02:02:15 76° N 02:02:15 76° N 02:07:53 10° N
Cosmos 2227 Rocket 4.1 01:57:40 10° NW 01:59:42 18° WNW 01:59:42 18° WNW
Cosmos 839 Rocket 4.0 02:04:58 78° N 02:04:58 78° N 02:10:46 10° NNE
Cosmos 1140 Rocket 4.3 02:01:57 10° NNW 02:05:40 48° N 02:05:40 48° N
USA 229 4.5 02:13:20 37° WNW 02:14:46 41° NW 02:21:17 10° NNE
ADEOS Rocket 3.9 02:12:42 10° NNE 02:18:16 35° E 02:18:30 35° E
NOSS 3-1 (A) 3.4 02:20:54 73° NE 02:20:54 73° NE 02:26:41 10° NE
Cosmos 2263 Rocket 3.9 02:16:10 10° N 02:21:03 29° ENE 02:24:05 18° ESE
CZ-2D R/B 4.1 02:17:45 10° NE 02:21:22 18° E 02:22:07 17° ESE
Cosmos 2360 Rocket 3.8 02:25:56 22° ESE 02:26:00 22° E 02:30:17 10° NE
Cosmos 1980 Rocket 2.9 02:27:13 43° NW 02:27:13 43° NW 02:32:14 10° N
CZ-4C R/B 2.8 02:28:20 10° NW 02:35:41 81° WSW 02:36:57 65° S
Cosmos 1437 Rocket 4.4 02:38:08 35° NNE 02:38:08 35° NNE 02:40:38 10° NNE
H-2A R/B 4.5 02:39:57 10° N 02:41:48 22° NNW 02:41:48 22° NNW
ISS -0.5 02:56:06 10° NNW 02:57:57 14° NNE 02:59:48 10° ENE
Meteor 1-21 4.1 02:54:45 10° N 03:00:14 80° WNW 03:00:14 80° WNW
Helios 1A Rocket 4.2 02:57:06 10° N 02:59:42 36° NNW 02:59:42 36° NNW
Meteor 1-4 Rocket 4.5 03:04:31 27° ENE 03:04:31 27° ENE 03:06:39 10° NNE
NOSS 3-1 (C) 4.3 03:03:50 32° WNW 03:05:09 36° NW 03:11:04 10° NNE
SL-16 R/B 2.3 03:08:00 58° WNW 03:08:14 59° WNW 03:13:51 10° NNE
Cosmos 1302 Rocket 4.5 03:10:53 47° SE 03:11:28 50° ESE 03:16:35 10° NNE
Cosmos 1709 Rocket 4.1 03:12:08 52° W 03:12:29 52° W 03:18:27 10° N
Cosmos 1606 Rocket 4.2 03:12:36 50° E 03:12:36 50° E 03:16:51 10° NNE
Meteor 2-9 Rocket 4.1 03:12:51 70° WSW 03:13:18 74° W 03:19:12 10° N
Cosmos 1110 Rocket 3.9 03:15:26 72° WNW 03:15:27 72° WNW 03:20:38 10° NNE
Cosmos 2322 Rocket 2.6 03:16:49 48° W 03:17:19 49° WNW 03:22:51 10° NNE
IRS-1D 3.8 03:13:02 10° NNE 03:17:56 56° E 03:18:33 52° SE
Spot 4 Rocket 4.2 03:13:56 10° NNE 03:19:04 62° ESE 03:19:49 55° SE
SL-16 R/B 2.5 03:25:41 36° SSE 03:28:27 83° ENE 03:34:45 10° NNW
Cosmos 1825 Rocket 3.4 03:33:16 10° N 03:37:40 81° W 03:37:40 81° W
Cosmos 1758 Rocket 3.6 03:34:36 10° N 03:38:57 74° E 03:39:32 62° SE
USA 234 4.2 03:33:17 10° NNE 03:39:14 39° NNW 03:43:02 21° W
NOSS 2-3 (D) 3.7 03:38:57 67° S 03:39:34 81° ESE 03:44:51 10° NE
Resurs 1-4 Rocket 2.0 03:36:06 10° N 03:41:23 82° WNW 03:42:32 56° SSW
IRS-1C 4.3 03:36:44 10° N 03:41:56 54° WNW 03:42:48 48° WSW
Cosmos 2327 Rocket 4.5 03:40:14 44° SSW 03:42:26 83° W 03:48:53 10° N
ARIANE 5 R/B 2.4 03:40:51 10° NNE 03:46:00 86° WNW 03:47:18 52° SSW
Cosmos 2184 Rocket 3.9 03:44:55 46° SSW 03:46:49 71° W 03:53:00 10° N
Cosmos 1271 Rocket 3.9 03:46:35 33° SE 03:47:40 40° E 03:51:26 10° NNE
Cosmos 2237 4.3 03:47:02 43° S 03:48:56 73° ESE 03:54:37 10° NNE
Cosmos 2228 3.0 03:50:41 54° SSE 03:51:31 73° E 03:55:48 10° NNE
UNKNOWN OBJECT B 3.3 03:48:28 10° NNE 03:52:14 54° E 03:53:00 45° SE
SL-08 R/B 4.4 03:55:29 27° WNW 03:55:29 27° WNW 03:58:34 10° NW
Intelsat 5-1 Rocket 4.3 03:55:20 16° SSE 03:55:20 16° SSE 03:59:19 10° ESE
Cosmos 389 Rocket 4.3 03:55:19 21° SE 03:56:41 27° E 03:59:46 10° NNE
CZ-2D R/B 2.4 03:56:23 10° N 04:01:43 55° WNW 04:03:26 39° SW
ADEOS Rocket 3.9 03:58:18 10° N 04:03:39 31° WNW 04:05:27 26° W
Cosmos 2263 Rocket 2.7 03:59:48 10° NW 04:05:02 38° WSW 04:05:41 37° WSW
ATLAS 2AS CENTAUR R/B 3.0 04:01:46 32° SSW 04:05:47 88° WNW 04:13:58 10° NNE
Cosmos 44 2.9 04:03:20 10° NW 04:07:42 69° WSW 04:10:29 22° SSE
Aureole 2 Rocket 4.1 04:06:58 22° SSE 04:09:00 37° ESE 04:12:47 10° NE
Cosmos 2360 Rocket 2.7 04:07:42 33° WSW 04:09:38 46° WNW 04:15:04 10° N
OAO 3 Rocket 3.2 04:10:18 43° SW 04:11:38 61° S 04:16:27 10° E
Cosmos 2058 Rocket 3.2 04:10:45 44° SW 04:11:49 57° W 04:16:17 10° N
COSMOS 2428 2.7 04:09:40 31° SSW 04:12:30 83° ESE 04:18:16 10° NNE
DELTA 2 R/B (1) 3.5 04:10:46 32° WSW 04:13:26 88° SSE 04:19:02 10° ENE
Cosmos 2219 Rocket 2.9 04:10:11 20° S 04:13:54 49° ESE 04:19:21 10° NNE
Intercosmos 24 4.2 04:13:16 30° SSE 04:15:01 65° E 04:19:38 10° NNE
Cosmos 1953 Rocket 4.0 04:11:05 10° NNW 04:15:18 42° W 04:16:00 39° WSW
SEDSat Delta rocket 4.2 04:16:57 23° SSE 04:16:57 23° SSE 04:20:18 10° ESE
Cosmos 2237 Rocket 3.9 04:12:30 10° SSE 04:17:10 27° ESE 04:21:48 10° NE
Cosmos 1486 Rocket 4.1 04:13:41 10° NNW 04:18:51 56° WSW 04:21:56 23° S
Nadezhda 3 Rocket 3.9 04:12:55 10° N 04:19:11 86° W 04:25:17 11° S
MOZ.5/SAFIR/RUBIN 5/SL-8 3.7 04:18:32 25° S 04:21:10 68° W 04:25:47 10° NNW
BREEZE-M DEB (TANK) 4.0 04:19:29 31° SSW 04:21:21 58° SE 04:33:13 10° NE
Cosmos 962 Rocket 4.4 04:18:43 19° S 04:23:12 87° E 04:29:21 10° N
CZ-4C R/B 4.5 04:19:25 10° WNW 04:22:02 15° W 04:22:02 15° W
Cosmos 1812 Rocket 4.2 04:20:51 16° SSE 04:24:10 53° E 04:28:24 10° NNE
Cosmos 1544 4.1 04:21:47 18° SSE 04:24:13 45° E 04:27:47 10° NNE
MOS 1 Rocket 3.7 04:20:57 10° N 04:25:13 42° WNW 04:26:36 32° WSW
Cosmos 972 Rocket 3.8 04:23:15 32° SSW 04:25:29 68° WNW 04:30:26 10° N
Cosmos 1844 Rocket 3.1 04:20:10 10° NNW 04:25:49 64° ENE 04:31:26 10° SSE
Okean O Rocket 3.4 04:25:54 10° NE 04:29:45 28° E 04:33:37 10° SSE
Cosmos 1354 Rocket 4.0 04:26:07 10° NNW 04:31:27 86° WSW 04:36:45 10° SSE
Cosmos 2333 Rocket 2.7 04:27:03 16° S 04:31:34 56° ESE 04:37:08 10° NNE
SeaSat 1 3.9 04:28:03 10° SE 04:32:36 39° ENE 04:37:11 10° N
Cosmos 1707 3.4 04:31:10 10° NNW 04:34:40 34° W 04:35:22 31° WSW
Meteor 2-5 Rocket 3.8 04:29:18 10° NNW 04:34:49 57° W 04:39:37 14° S
ISS -3.8 04:31:36 10° NW 04:34:52 81° NE 04:38:08 10° SE
Cosmos 1766 3.1 04:33:36 26° SSW 04:35:42 81° W 04:39:38 10° N
USA 161 2.0 04:33:19 13° SSE 04:35:52 63° ENE 04:38:49 10° N
ATLAS 3B R/B 3.0 04:34:18 10° NNW 04:41:00 67° NE 04:47:26 10° SE
Cosmos 2154 Rocket 4.3 04:37:09 22° SW 04:41:04 49° W 04:47:08 10° N
Meteor 1-24 Rocket 3.6 04:37:26 10° N 04:42:51 80° W 04:48:25 10° S
Cosmos 1378 3.9 04:40:39 10° NNW 04:43:59 31° W 04:45:00 27° WSW
Cosmos 44 Rocket 4.3 04:45:49 10° WNW 04:49:33 23° WSW 04:50:59 20° SW
Cosmos 2278 Rocket 3.7 04:44:51 10° N 04:50:09 39° ENE 04:55:26 10° SE
NOSS 0 Rocket 4.2 04:45:23 12° SSW 04:51:11 69° ESE 04:57:21 10° NNE
BREEZE M DEB (TANK) 2.9 04:50:10 10° WNW 04:52:49 61° SW 04:59:20 10° SE
OPS 6432 4.3 04:52:01 21° SSW 04:54:20 89° WNW 04:57:28 10° NNE
Cosmos 968 Rocket 4.3 04:52:58 10° N 04:58:04 55° ENE 05:03:04 10° SSE
Cosmos 2341 Rocket 4.4 04:55:15 14° SSW 05:00:27 48° W 05:06:36 10° N
MOS 1-B 4.4 04:55:07 10° N 05:00:53 70° WNW 05:06:39 10° SSW
Cosmos 1607 4.1 04:55:27 10° NW 05:01:42 53° WSW 05:07:56 10° S
USA 238 DEB 4.0 04:55:30 10° NNW 05:02:38 78° ENE 05:09:48 10° SE
USA 238 4.0 04:55:37 10° NNW 05:02:45 77° ENE 05:09:55 10° SE
Cosmos 2366 rocket 4.1 04:57:20 10° S 05:03:28 82° E 05:09:42 10° N
SL-16 R/B 4.1 04:58:48 10° SSE 05:03:31 28° ESE 05:08:14 10° NE
ERBS 3.1 05:04:13 13° SSW 05:07:03 46° SE 05:10:22 10° NE
Cosmos 1674 3.7 05:03:25 10° N 05:07:09 49° E 05:10:54 10° SSE
DELTA 2 R/B(2) 3.0 05:07:03 30° SW 05:07:40 55° SSE 05:09:42 10° E
Cosmos 1340 Rocket 3.7 05:05:38 10° NNW 05:09:05 29° W 05:12:16 11° SSW
Cosmos 1805 3.4 05:07:36 11° SSW 05:11:11 53° W 05:15:02 10° N
Landsat 4 4.0 05:08:07 10° SSE 05:11:50 69° ENE 05:15:32 10° N
Cosmos 1356 Rocket 3.2 05:07:50 10° NNW 05:11:53 76° W 05:15:50 10° S
SL-16 R/B 4.2 05:10:47 12° WSW 05:12:42 13° W 05:15:33 10° WNW
Cosmos 1844 3.7 05:08:24 10° NNW 05:13:58 66° WSW 05:19:34 10° S
ADEOS II 2.3 05:15:22 10° N 05:20:31 58° WNW 05:25:39 10° SSW
PSLV R/B 3.6 05:17:22 10° N 05:21:45 71° WNW 05:26:06 10° SSW
Cosmos 2218 Rocket 4.1 05:16:29 10° SSW 05:22:39 62° W 05:28:57 10° N
Cosmos 864 Rocket 4.5 05:16:38 10° SSW 05:22:47 74° W 05:28:56 10° N
Meteor 2-15 Rocket 4.5 05:19:44 10° N 05:25:55 83° W 05:32:03 10° S
Lacrosse 5 rocket 2.4 05:24:11 10° NNW 05:28:09 50° NE 05:32:20 10° ESE
Cosmos 1758 3.8 05:27:25 10° SSW 05:31:14 42° W 05:35:05 10° N
Meteor 1-21 Rocket 4.3 05:27:46 10° N 05:33:34 82° W 05:39:24 10° S
Abrixas rocket 2.4 05:30:28 10° SW 05:33:45 69° SE 05:37:04 10° ENE
ATLAS CENTAUR R/B 3.2 05:30:18 10° NNW 05:34:22 33° NNE 05:36:30 10° ESE
Geosat 4.0 05:29:52 10° NNE 05:34:55 84° WNW 05:39:56 10° SSW
Cosmos 1953 2.9 05:34:56 10° SSW 05:38:44 40° W 05:42:33 10° N
CZ-4B R/B 3.6 05:36:41 10° N 05:40:11 34° WNW 05:43:49 10° SW
